| time (UTC) | temp C | wind direction | speed KPH | gust KPH | rain 1hr cm | rain 24hr cm | rain mn cm | humidity % | barometer mb |
| 20260505035536 | 18 | 141 | 1.6 | 6.4 | 0.00 | 0.00 | 0.00 | 66 | 1009.8 |
| 20260505035038 | 18 | 344 | 1.6 | 6.4 | 0.00 | 0.00 | 0.00 | 65 | 1009.7 |
| 20260505034549 | 18 | 183 | 0.0 | 3.2 | 0.00 | 0.00 | 0.00 | 66 | 1009.7 |
| 20260505034038 | 19 | 167 | 0.0 | 3.2 | 0.00 | 0.00 | 0.00 | 64 | 1009.5 |
| 20260505033538 | 19 | 355 | 0.0 | 3.2 | 0.00 | 0.00 | 0.00 | 63 | 1009.5 |
| 20260505033048 | 20 | 0 | 0.0 | 3.2 | 0.00 | 0.00 | 0.00 | 65 | 1009.5 |
| 20260505032537 | 20 | 227 | 0.0 | 6.4 | 0.00 | 0.00 | 0.00 | 62 | 1009.3 |
| 20260505032036 | 20 | 217 | 1.6 | 6.4 | 0.00 | 0.00 | 0.00 | 60 | 1009.3 |
| 20260505031553 | 20 | 0 | 1.6 | 4.8 | 0.00 | 0.00 | 0.00 | 59 | 1009.2 |
| 20260505031036 | 21 | 90 | 1.6 | 9.7 | 0.00 | 0.00 | 0.00 | 59 | 1009.1 |
| 20260505030536 | 21 | 355 | 3.2 | 9.7 | 0.00 | 0.00 | 0.00 | 58 | 1009.1 |
| 20260505030046 | 21 | 90 | 3.2 | 9.7 | 0.00 | 0.00 | 0.00 | 57 | 1009.1 |
| 20260505025536 | 21 | 90 | 1.6 | 6.4 | 0.00 | 0.00 | 0.00 | 57 | 1009.0 |
| 20260505025037 | 22 | 355 | 1.6 | 6.4 | 0.00 | 0.00 | 0.00 | 57 | 1009.0 |
| 20260505024547 | 22 | 355 | 1.6 | 8.0 | 0.00 | 0.00 | 0.00 | 56 | 1008.9 |
| 20260505024033 | 22 | 355 | 0.0 | 14.5 | 0.00 | 0.00 | 0.00 | 56 | 1009.0 |
| 20260505023538 | 22 | 90 | 3.2 | 14.5 | 0.00 | 0.00 | 0.00 | 55 | 1008.9 |
| 20260505023042 | 22 | 90 | 3.2 | 9.7 | 0.00 | 0.00 | 0.00 | 55 | 1008.8 |
| 20260505022536 | 22 | 155 | 3.2 | 11.3 | 0.00 | 0.00 | 0.00 | 54 | 1008.8 |
| 20260505022034 | 23 | 55 | 1.6 | 11.3 | 0.00 | 0.00 | 0.00 | 54 | 1008.8 |
| 20260505021550 | 23 | 338 | 4.8 | 9.7 | 0.00 | 0.00 | 0.00 | 53 | 1008.8 |
| 20260505021036 | 23 | 10 | 4.8 | 8.0 | 0.00 | 0.00 | 0.00 | 52 | 1008.7 |
| 20260505020535 | 23 | 248 | 1.6 | 6.4 | 0.00 | 0.00 | 0.00 | 52 | 1008.7 |
| 20260505020047 | 23 | 90 | 3.2 | 11.3 | 0.00 | 0.00 | 0.00 | 52 | 1008.8 |
| 20260505015536 | 24 | 355 | 4.8 | 11.3 | 0.00 | 0.00 | 0.00 | 50 | 1008.7 |
| 20260505015037 | 24 | 9 | 4.8 | 11.3 | 0.00 | 0.00 | 0.00 | 49 | 1008.7 |
| 20260505014551 | 25 | 18 | 3.2 | 9.7 | 0.00 | 0.00 | 0.00 | 48 | 1008.8 |
| 20260505014037 | 25 | 355 | 1.6 | 14.5 | 0.00 | 0.00 | 0.00 | 48 | 1008.7 |
| 20260505013535 | 25 | 28 | 1.6 | 14.5 | 0.00 | 0.00 | 0.00 | 48 | 1008.8 |
| 20260505013043 | 25 | 21 | 6.4 | 14.5 | 0.00 | 0.00 | 0.00 | 46 | 1008.7 |
| 20260505012536 | 25 | 268 | 3.2 | 12.9 | 0.00 | 0.00 | 0.00 | 45 | 1008.7 |
| 20260505012037 | 25 | 90 | 4.8 | 14.5 | 0.00 | 0.00 | 0.00 | 44 | 1008.8 |
| 20260505011541 | 25 | 90 | 4.8 | 14.5 | 0.00 | 0.00 | 0.00 | 44 | 1008.8 |
| 20260505011034 | 25 | 90 | 4.8 | 14.5 | 0.00 | 0.00 | 0.00 | 44 | 1008.9 |
| 20260505010536 | 25 | 21 | 4.8 | 12.9 | 0.00 | 0.00 | 0.00 | 44 | 1008.9 |
| 20260505010048 | 25 | 90 | 4.8 | 14.5 | 0.00 | 0.00 | 0.00 | 42 | 1008.9 |
| 20260505005534 | 25 | 355 | 3.2 | 14.5 | 0.00 | 0.00 | 0.00 | 41 | 1009.0 |
| 20260505005034 | 25 | 351 | 4.8 | 12.9 | 0.00 | 0.00 | 0.00 | 40 | 1009.0 |
| 20260505004538 | 25 | 90 | 4.8 | 12.9 | 0.00 | 0.00 | 0.00 | 41 | 1008.9 |
| 20260505004038 | 26 | 243 | 3.2 | 12.9 | 0.00 | 0.00 | 0.00 | 40 | 1009.0 |
| 20260505003535 | 25 | 90 | 1.6 | 14.5 | 0.00 | 0.00 | 0.00 | 40 | 1008.9 |
| 20260505003054 | 25 | 347 | 6.4 | 14.5 | 0.00 | 0.00 | 0.00 | 40 | 1008.9 |
| 20260505002533 | 25 | 99 | 4.8 | 14.5 | 0.00 | 0.00 | 0.00 | 42 | 1008.8 |
| 20260505002109 | 25 | 90 | 4.8 | 14.5 | 0.00 | 0.00 | 0.00 | 41 | 1008.8 |
| 20260505001547 | 25 | 99 | 6.4 | 14.5 | 0.00 | 0.00 | 0.00 | 40 | 1008.8 |
| 20260505001035 | 25 | 337 | 4.8 | 14.5 | 0.00 | 0.00 | 0.00 | 40 | 1008.9 |
| 20260505000536 | 25 | 359 | 6.4 | 14.5 | 0.00 | 0.00 | 0.00 | 38 | 1008.9 |
| 20260505000048 | 25 | 359 | 4.8 | 11.3 | 0.00 | 0.00 | 0.00 | 37 | 1008.9 |
| 20260504235536 | 25 | 16 | 6.4 | 11.3 | 0.00 | 0.00 | 0.00 | 35 | 1008.9 |
| 20260504235035 | 25 | 90 | 6.4 | 12.9 | 0.00 | 0.00 | 0.00 | 36 | 1008.8 |
| 20260504234550 | 25 | 90 | 6.4 | 12.9 | 0.00 | 0.00 | 0.00 | 37 | 1008.9 |
| 20260504234035 | 25 | 28 | 4.8 | 14.5 | 0.00 | 0.00 | 0.00 | 37 | 1008.8 |
| 20260504233538 | 25 | 34 | 4.8 | 17.7 | 0.00 | 0.00 | 0.00 | 38 | 1008.9 |
| 20260504233052 | 25 | 34 | 8.0 | 17.7 | 0.00 | 0.00 | 0.00 | 38 | 1008.9 |
| 20260504232535 | 25 | 7 | 4.8 | 17.7 | 0.00 | 0.00 | 0.00 | 37 | 1008.8 |
| 20260504232036 | 25 | 51 | 4.8 | 12.9 | 0.00 | 0.00 | 0.00 | 38 | 1008.9 |
| 20260504231549 | 25 | 355 | 6.4 | 12.9 | 0.00 | 0.00 | 0.00 | 37 | 1008.9 |
| 20260504231034 | 25 | 257 | 4.8 | 11.3 | 0.00 | 0.00 | 0.00 | 37 | 1008.9 |
| 20260504230533 | 25 | 30 | 1.6 | 11.3 | 0.00 | 0.00 | 0.00 | 39 | 1009.0 |
| 20260504230054 | 25 | 227 | 3.2 | 11.3 | 0.00 | 0.00 | 0.00 | 39 | 1009.0 |
| 20260504225539 | 25 | 174 | 4.8 | 12.9 | 0.00 | 0.00 | 0.00 | 37 | 1009.2 |
| 20260504225035 | 25 | 349 | 4.8 | 12.9 | 0.00 | 0.00 | 0.00 | 38 | 1009.2 |
| 20260504224545 | 26 | 90 | 3.2 | 14.5 | 0.00 | 0.00 | 0.00 | 37 | 1009.2 |
| 20260504224033 | 25 | 247 | 6.4 | 14.5 | 0.00 | 0.00 | 0.00 | 38 | 1009.2 |
| 20260504223533 | 26 | 90 | 6.4 | 12.9 | 0.00 | 0.00 | 0.00 | 41 | 1009.2 |
| 20260504223045 | 26 | 114 | 3.2 | 16.1 | 0.00 | 0.00 | 0.00 | 40 | 1009.3 |
| 20260504222536 | 26 | 90 | 3.2 | 16.1 | 0.00 | 0.00 | 0.00 | 38 | 1009.3 |
| 20260504222033 | 25 | 28 | 3.2 | 12.9 | 0.00 | 0.00 | 0.00 | 38 | 1009.4 |
| 20260504221540 | 25 | 90 | 4.8 | 12.9 | 0.00 | 0.00 | 0.00 | 40 | 1009.4 |
| 20260504221035 | 25 | 17 | 6.4 | 16.1 | 0.00 | 0.00 | 0.00 | 40 | 1009.5 |
| 20260504220535 | 25 | 30 | 4.8 | 16.1 | 0.00 | 0.00 | 0.00 | 40 | 1009.5 |
| 20260504220051 | 25 | 55 | 6.4 | 14.5 | 0.00 | 0.00 | 0.00 | 39 | 1009.5 |
| 20260504215536 | 25 | 45 | 6.4 | 16.1 | 0.00 | 0.00 | 0.00 | 41 | 1009.4 |
| 20260504215036 | 25 | 28 | 3.2 | 16.1 | 0.00 | 0.00 | 0.00 | 40 | 1009.5 |
| 20260504214548 | 25 | 355 | 4.8 | 12.9 | 0.00 | 0.00 | 0.00 | 39 | 1009.5 |
| 20260504214036 | 25 | 28 | 6.4 | 16.1 | 0.00 | 0.00 | 0.00 | 40 | 1009.5 |
| 20260504213536 | 25 | 90 | 4.8 | 16.1 | 0.00 | 0.00 | 0.00 | 40 | 1009.5 |
| 20260504213047 | 25 | 90 | 4.8 | 12.9 | 0.00 | 0.00 | 0.00 | 40 | 1009.6 |
| 20260504212533 | 25 | 55 | 1.6 | 11.3 | 0.00 | 0.00 | 0.00 | 40 | 1009.6 |
| 20260504212041 | 25 | 90 | 3.2 | 12.9 | 0.00 | 0.00 | 0.00 | 40 | 1009.6 |
| 20260504211544 | 25 | 171 | 4.8 | 16.1 | 0.00 | 0.00 | 0.00 | 40 | 1009.6 |
| 20260504211035 | 25 | 90 | 6.4 | 16.1 | 0.00 | 0.00 | 0.00 | 40 | 1009.6 |
| 20260504210540 | 25 | 36 | 3.2 | 11.3 | 0.00 | 0.00 | 0.00 | 42 | 1009.5 |
| 20260504210054 | 25 | 90 | 3.2 | 17.7 | 0.00 | 0.00 | 0.00 | 41 | 1009.7 |
| 20260504205537 | 25 | 45 | 1.6 | 17.7 | 0.00 | 0.00 | 0.00 | 42 | 1009.7 |
| 20260504205038 | 25 | 36 | 4.8 | 14.5 | 0.00 | 0.00 | 0.00 | 43 | 1009.7 |
| 20260504204556 | 25 | 90 | 4.8 | 14.5 | 0.00 | 0.00 | 0.00 | 44 | 1009.8 |
| 20260504204035 | 24 | 10 | 9.7 | 14.5 | 0.00 | 0.00 | 0.00 | 45 | 1009.7 |
| 20260504203537 | 25 | 39 | 4.8 | 12.9 | 0.00 | 0.00 | 0.00 | 43 | 1009.7 |
| 20260504203103 | 25 | 90 | 4.8 | 14.5 | 0.00 | 0.00 | 0.00 | 45 | 1009.7 |
| 20260504202536 | 25 | 34 | 8.0 | 12.9 | 0.00 | 0.00 | 0.00 | 47 | 1009.6 |
| 20260504202036 | 25 | 90 | 3.2 | 14.5 | 0.00 | 0.00 | 0.00 | 43 | 1009.7 |
| 20260504201548 | 26 | 90 | 6.4 | 14.5 | 0.00 | 0.00 | 0.00 | 40 | 1009.7 |
| 20260504201035 | 26 | 90 | 1.6 | 12.9 | 0.00 | 0.00 | 0.00 | 38 | 1009.7 |
| 20260504200535 | 26 | 99 | 1.6 | 4.8 | 0.00 | 0.00 | 0.00 | 39 | 1009.8 |
| 20260504200046 | 25 | 114 | 3.2 | 8.0 | 0.00 | 0.00 | 0.00 | 42 | 1009.9 |
| 20260504195537 | 25 | 112 | 1.6 | 8.0 | 0.00 | 0.00 | 0.00 | 44 | 1009.9 |
| 20260504195039 | 24 | 141 | 6.4 | 8.0 | 0.00 | 0.00 | 0.00 | 41 | 1010.0 |
| 20260504194546 | 23 | 99 | 1.6 | 12.9 | 0.00 | 0.00 | 0.00 | 42 | 1010.0 |
| 20260504194038 | 23 | 217 | 3.2 | 14.5 | 0.00 | 0.00 | 0.00 | 42 | 1010.0 |
| 20260504193537 | 23 | 30 | 6.4 | 14.5 | 0.00 | 0.00 | 0.00 | 43 | 1010.0 |
| 20260504193048 | 23 | 25 | 9.7 | 14.5 | 0.00 | 0.00 | 0.00 | 44 | 1010.0 |
| 20260504192536 | 23 | 51 | 4.8 | 11.3 | 0.00 | 0.00 | 0.00 | 44 | 1010.0 |
| 20260504192036 | 23 | 39 | 3.2 | 12.9 | 0.00 | 0.00 | 0.00 | 42 | 1010.1 |
| 20260504191550 | 23 | 34 | 4.8 | 12.9 | 0.00 | 0.00 | 0.00 | 44 | 1010.1 |
| 20260504191033 | 23 | 19 | 4.8 | 12.9 | 0.00 | 0.00 | 0.00 | 43 | 1010.1 |
| 20260504190537 | 23 | 45 | 3.2 | 12.9 | 0.00 | 0.00 | 0.00 | 43 | 1010.1 |
| 20260504190101 | 23 | 51 | 3.2 | 6.4 | 0.00 | 0.00 | 0.00 | 45 | 1010.1 |
| 20260504185534 | 23 | 144 | 1.6 | 14.5 | 0.00 | 0.00 | 0.00 | 49 | 1010.1 |
| 20260504185033 | 23 | 90 | 4.8 | 14.5 | 0.00 | 0.00 | 0.00 | 45 | 1010.2 |
| 20260504184550 | 22 | 183 | 3.2 | 8.0 | 0.00 | 0.00 | 0.00 | 45 | 1010.2 |
| 20260504184039 | 22 | 34 | 4.8 | 12.9 | 0.00 | 0.00 | 0.00 | 46 | 1010.3 |
| 20260504183535 | 22 | 217 | 4.8 | 12.9 | 0.00 | 0.00 | 0.00 | 49 | 1010.3 |
| 20260504183047 | 22 | 10 | 4.8 | 11.3 | 0.00 | 0.00 | 0.00 | 47 | 1010.3 |
| 20260504182536 | 22 | 30 | 3.2 | 9.7 | 0.00 | 0.00 | 0.00 | 49 | 1010.4 |
| 20260504182036 | 22 | 214 | 1.6 | 11.3 | 0.00 | 0.00 | 0.00 | 49 | 1010.4 |
| 20260504181550 | 22 | 355 | 3.2 | 9.7 | 0.00 | 0.00 | 0.00 | 49 | 1010.5 |
| 20260504181036 | 22 | 32 | 3.2 | 11.3 | 0.00 | 0.00 | 0.00 | 48 | 1010.5 |
| 20260504180537 | 22 | 124 | 4.8 | 11.3 | 0.00 | 0.00 | 0.00 | 49 | 1010.4 |
| 20260504180045 | 21 | 141 | 1.6 | 12.9 | 0.00 | 0.00 | 0.00 | 52 | 1010.4 |
| 20260504175535 | 21 | 178 | 6.4 | 12.9 | 0.00 | 0.00 | 0.00 | 49 | 1010.3 |
| 20260504175033 | 21 | 205 | 6.4 | 12.9 | 0.00 | 0.00 | 0.00 | 50 | 1010.4 |
| 20260504174553 | 21 | 203 | 1.6 | 4.8 | 0.00 | 0.00 | 0.00 | 51 | 1010.4 |
| 20260504174037 | 21 | 158 | 1.6 | 11.3 | 0.00 | 0.00 | 0.00 | 52 | 1010.4 |
| 20260504173533 | 20 | 99 | 1.6 | 11.3 | 0.00 | 0.00 | 0.00 | 53 | 1010.4 |
| 20260504173052 | 20 | 149 | 6.4 | 11.3 | 0.00 | 0.00 | 0.00 | 54 | 1010.4 |
| 20260504172534 | 20 | 212 | 3.2 | 12.9 | 0.00 | 0.00 | 0.00 | 53 | 1010.4 |
| 20260504172036 | 20 | 116 | 1.6 | 14.5 | 0.00 | 0.00 | 0.00 | 54 | 1010.5 |
| 20260504171549 | 20 | 224 | 4.8 | 14.5 | 0.00 | 0.00 | 0.00 | 57 | 1010.4 |
| 20260504171038 | 20 | 208 | 6.4 | 14.5 | 0.00 | 0.00 | 0.00 | 55 | 1010.4 |
| 20260504170535 | 20 | 174 | 1.6 | 11.3 | 0.00 | 0.00 | 0.00 | 56 | 1010.4 |
| 20260504151038 | 16 | 0 | 0.0 | 1.6 | 0.00 | 0.00 | 0.00 | 70 | 1009.8 |
| 20260504150535 | 16 | 141 | 1.6 | 3.2 | 0.00 | 0.00 | 0.00 | 75 | 1009.9 |
| 20260504141038 | 11 | 149 | 1.6 | 4.8 | 0.00 | 0.00 | 0.00 | 90 | 1009.4 |
| 20260504140538 | 11 | 227 | 3.2 | 4.8 | 0.00 | 0.00 | 0.00 | 90 | 1009.4 |
| 20260504130539 | 10 | 90 | 0.0 | 3.2 | 0.00 | 0.00 | 0.00 | 91 | 1008.8 |
| 20260504110540 | 10 | 0 | 0.0 | 3.2 | 0.00 | 0.00 | 0.00 | 90 | 1008.9 |
| 20260504100534 | 11 | 90 | 0.0 | 3.2 | 0.00 | 0.00 | 0.00 | 88 | 1008.8 |
| 20260504081543 | 13 | 141 | 0.0 | 3.2 | 0.00 | 0.00 | 0.00 | 85 | 1009.0 |
| 20260504081034 | 13 | 90 | 0.0 | 3.2 | 0.00 | 0.00 | 0.00 | 85 | 1009.0 |
| 20260504080537 | 13 | 0 | 0.0 | 3.2 | 0.00 | 0.00 | 0.00 | 84 | 1009.0 |
| 20260504050536 | 17 | 183 | 1.6 | 3.2 | 0.00 | 0.00 | 0.00 | 77 | 1008.9 |
| 20260504045539 | 17 | 195 | 1.6 | 3.2 | 0.00 | 0.00 | 0.00 | 77 | 1008.8 |
| 20260504045035 | 17 | 183 | 0.0 | 3.2 | 0.00 | 0.00 | 0.00 | 74 | 1008.8 |
| 20260504044546 | 18 | 198 | 0.0 | 3.2 | 0.00 | 0.00 | 0.00 | 72 | 1008.9 |
| 20260504044035 | 18 | 340 | 1.6 | 3.2 | 0.00 | 0.00 | 0.00 | 69 | 1008.8 |
| 20260504043536 | 18 | 90 | 0.0 | 3.2 | 0.00 | 0.00 | 0.00 | 71 | 1008.8 |
| 20260504043043 | 18 | 217 | 1.6 | 3.2 | 0.00 | 0.00 | 0.00 | 74 | 1008.7 |
| 20260504042536 | 18 | 210 | 1.6 | 3.2 | 0.00 | 0.00 | 0.00 | 73 | 1008.7 |
| 20260504042035 | 19 | 217 | 1.6 | 3.2 | 0.00 | 0.00 | 0.00 | 75 | 1008.7 |
| 20260504041547 | 19 | 183 | 0.0 | 3.2 | 0.00 | 0.00 | 0.00 | 72 | 1008.6 |
| 20260504041034 | 19 | 239 | 1.6 | 3.2 | 0.00 | 0.00 | 0.00 | 71 | 1008.6 |
| 20260504040534 | 20 | 236 | 0.0 | 3.2 | 0.00 | 0.00 | 0.00 | 64 | 1008.6 |
| 20260504040050 | 20 | 90 | 3.2 | 3.2 | 0.00 | 0.00 | 0.00 | 62 | 1008.5 |